�������l�o���
Date,Time,MP-1(��Sv/h),MP-2(��Sv/h),MP-3(��Sv/h),MP-4(��Sv/h),MP-5(��Sv/h),MP-6(��Sv/h),MP-7(��Sv/h),����,����(m/s),���J
2018/01/27,00:00,0.308,0.190,0.314,0.304,0.276,0.161,0.099,�k��,4.5,��
2018/01/27,00:10,0.308,0.189,0.315,0.303,0.277,0.161,0.098,�k��,4.0,��
2018/01/27,00:20,0.306,0.190,0.315,0.305,0.277,0.161,0.098,�k�k��,5.7,��
2018/01/27,00:30,0.307,0.190,0.314,0.304,0.276,0.161,0.098,�k�k��,4.7,��
2018/01/27,00:40,0.308,0.189,0.316,0.305,0.276,0.160,0.098,�k��,5.2,��
2018/01/27,00:50,0.307,0.190,0.315,0.305,0.276,0.160,0.098,�k��,5.4,��
2018/01/27,01:00,0.307,0.189,0.316,0.305,0.277,0.162,0.098,�k��,4.9,��
2018/01/27,01:10,0.307,0.191,0.315,0.305,0.276,0.160,0.099,�k��,3.0,��
2018/01/27,01:20,0.307,0.189,0.315,0.304,0.276,0.160,0.099,�k��,3.2,��
2018/01/27,01:30,0.307,0.189,0.314,0.305,0.276,0.160,0.099,�k��,4.7,��
2018/01/27,01:40,0.309,0.189,0.316,0.304,0.276,0.160,0.098,�k��,4.2,��
2018/01/27,01:50,0.308,0.189,0.315,0.305,0.277,0.161,0.099,�k��,5.2,��
2018/01/27,02:00,0.308,0.189,0.315,0.304,0.275,0.160,0.097,�k�k��,5.7,��
2018/01/27,02:10,0.308,0.189,0.315,0.305,0.276,0.160,0.098,�k��,5.1,��
2018/01/27,02:20,0.308,0.189,0.315,0.305,0.276,0.160,0.099,���k��,7.3,��
2018/01/27,02:30,0.307,0.189,0.314,0.305,0.275,0.162,0.099,�k��,8.4,��
2018/01/27,02:40,0.307,0.190,0.315,0.304,0.276,0.161,0.098,���k��,7.7,��
2018/01/27,02:50,0.308,0.189,0.315,0.304,0.277,0.161,0.098,���k��,6.5,��
2018/01/27,03:00,0.307,0.189,0.315,0.304,0.276,0.160,0.098,�k��,3.3,��
2018/01/27,03:10,0.307,0.189,0.316,0.305,0.276,0.161,0.098,���k��,4.5,��
2018/01/27,03:20,0.308,0.189,0.315,0.305,0.276,0.161,0.099,�k��,5.6,��
2018/01/27,03:30,0.308,0.190,0.314,0.303,0.276,0.160,0.098,�k��,4.2,��
2018/01/27,03:40,0.307,0.190,0.316,0.304,0.275,0.161,0.099,�k�k��,3.6,��
2018/01/27,03:50,0.306,0.190,0.315,0.304,0.276,0.161,0.098,�k��,2.4,��
2018/01/27,04:00,0.307,0.189,0.315,0.304,0.276,0.160,0.098,�k��,1.9,��
2018/01/27,04:10,0.308,0.190,0.314,0.305,0.277,0.159,0.098,���k��,1.2,��
2018/01/27,04:20,0.308,0.190,0.315,0.304,0.276,0.161,0.099,���k��,3.2,��
2018/01/27,04:30,0.307,0.189,0.314,0.304,0.276,0.161,0.098,���k��,5.0,��
2018/01/27,04:40,0.307,0.189,0.316,0.304,0.276,0.161,0.099,�k��,5.9,��
2018/01/27,04:50,0.308,0.190,0.314,0.303,0.276,0.160,0.099,���k��,7.3,��
2018/01/27,05:00,0.307,0.190,0.315,0.305,0.276,0.161,0.098,���k��,5.8,��
2018/01/27,05:10,0.308,0.189,0.315,0.305,0.276,0.161,0.098,��,4.9,��
2018/01/27,05:20,0.307,0.190,0.315,0.304,0.277,0.161,0.098,��,3.8,��
2018/01/27,05:30,0.307,0.189,0.316,0.305,0.277,0.161,0.098,��,4.0,��
2018/01/27,05:40,0.307,0.189,0.314,0.304,0.275,0.161,0.098,���k��,3.6,��
2018/01/27,05:50,0.308,0.188,0.314,0.304,0.277,0.161,0.098,���k��,2.7,��
2018/01/27,06:00,0.307,0.189,0.315,0.304,0.275,0.160,0.098,�k��,1.5,��
2018/01/27,06:10,0.307,0.190,0.314,0.303,0.276,0.161,0.097,�k��,1.7,��
2018/01/27,06:20,0.309,0.189,0.313,0.304,0.278,0.161,0.097,�k��,1.1,��
2018/01/27,06:30,0.307,0.189,0.314,0.305,0.275,0.161,0.099,�k�k��,1.4,��
2018/01/27,06:40,0.306,0.189,0.313,0.305,0.276,0.160,0.097,�k,1.0,��
2018/01/27,06:50,0.307,0.189,0.314,0.305,0.275,0.160,0.098,�k,1.0,��
2018/01/27,07:00,0.308,0.190,0.315,0.303,0.275,0.160,0.098,-,CALM,��
2018/01/27,07:10,0.307,0.190,0.315,0.304,0.276,0.160,0.098,-,CALM,��
2018/01/27,07:20,0.308,0.190,0.315,0.304,0.276,0.161,0.099,��,0.6,��
2018/01/27,07:30,0.307,0.189,0.313,0.304,0.276,0.160,0.097,��쐼,1.5,��
2018/01/27,07:40,0.307,0.190,0.315,0.303,0.277,0.161,0.098,�쐼,0.9,��
2018/01/27,07:50,0.307,0.190,0.314,0.304,0.275,0.160,0.099,�쐼,1.2,��
2018/01/27,08:00,0.307,0.190,0.314,0.303,0.276,0.161,0.098,�쐼,0.6,��
2018/01/27,08:10,0.307,0.189,0.313,0.304,0.276,0.161,0.098,�쐼,0.9,��
2018/01/27,08:20,0.307,0.190,0.316,0.304,0.277,0.160,0.098,�k�k��,0.7,��
2018/01/27,08:30,0.308,0.189,0.314,0.304,0.276,0.161,0.098,�k�k��,0.7,��
2018/01/27,08:40,0.307,0.189,0.315,0.304,0.274,0.161,0.098,-,CALM,��
2018/01/27,08:50,0.306,0.189,0.315,0.303,0.276,0.162,0.099,�k��,1.7,��
2018/01/27,09:00,0.308,0.189,0.314,0.303,0.275,0.161,0.098,���k��,3.6,��
2018/01/27,09:10,0.307,0.189,0.314,0.302,0.276,0.160,0.098,�k��,1.7,��
2018/01/27,09:20,0.306,0.190,0.314,0.304,0.276,0.160,0.098,�k��,2.1,��
2018/01/27,09:30,0.306,0.189,0.315,0.302,0.275,0.159,0.098,�k,1.9,��
2018/01/27,09:40,0.307,0.188,0.315,0.302,0.276,0.161,0.099,�k�k��,5.0,��
2018/01/27,09:50,0.308,0.189,0.314,0.303,0.275,0.160,0.097,�k�k��,5.6,��
2018/01/27,10:00,0.305,0.189,0.315,0.302,0.276,0.160,0.098,�k��,6.5,��
2018/01/27,10:10,0.306,0.189,0.314,0.303,0.275,0.160,0.097,���k��,8.4,��
2018/01/27,10:20,0.306,0.189,0.316,0.303,0.276,0.160,0.098,���k��,7.7,��
2018/01/27,10:30,0.306,0.189,0.314,0.305,0.279,0.161,0.098,���k��,8.1,��
2018/01/27,10:40,0.306,0.189,0.315,0.302,0.275,0.160,0.099,�k��,5.8,��
2018/01/27,10:50,0.305,0.190,0.315,0.304,0.276,0.161,0.099,���k��,5.0,��
2018/01/27,11:00,0.305,0.190,0.315,0.304,0.278,0.159,0.098,���k��,6.2,��
2018/01/27,11:10,0.306,0.190,0.315,0.305,0.277,0.159,0.098,�k��,6.4,��
2018/01/27,11:20,0.306,0.189,0.315,0.305,0.275,0.161,0.098,�k��,7.0,��
2018/01/27,11:30,0.307,0.189,0.314,0.304,0.277,0.160,0.098,�k��,7.3,��
2018/01/27,11:40,0.306,0.189,0.315,0.303,0.276,0.160,0.098,���k��,7.3,��
2018/01/27,11:50,0.306,0.189,0.315,0.303,0.277,0.160,0.098,���k��,7.1,��
2018/01/27,12:00,0.306,0.191,0.316,0.305,0.279,0.160,0.098,�k��,6.1,��
2018/01/27,12:10,0.306,0.189,0.314,0.304,0.276,0.160,0.097,�k��,4.3,��
2018/01/27,12:20,0.306,0.189,0.314,0.305,0.276,0.161,0.098,���k��,6.5,��
2018/01/27,12:30,0.307,0.189,0.315,0.305,0.279,0.160,0.098,��,7.3,��
2018/01/27,12:40,0.307,0.189,0.315,0.305,0.277,0.161,0.098,��,7.8,��
2018/01/27,12:50,0.307,0.189,0.313,0.304,0.277,0.161,0.098,�k��,8.7,��
2018/01/27,13:00,0.308,0.190,0.315,0.306,0.279,0.160,0.098,�k��,9.7,��
2018/01/27,13:10,0.306,0.189,0.314,0.304,0.278,0.160,0.098,���k��,11.5,��
2018/01/27,13:20,0.309,0.190,0.314,0.304,0.279,0.161,0.098,���k��,7.1,��
2018/01/27,13:30,0.309,0.190,0.314,0.306,0.280,0.160,0.099,���k��,8.1,��
2018/01/27,13:40,0.309,0.190,0.315,0.304,0.280,0.160,0.098,���k��,7.3,��
2018/01/27,13:50,0.308,0.191,0.314,0.304,0.279,0.161,0.099,���k��,8.7,��
2018/01/27,14:00,0.308,0.190,0.314,0.305,0.278,0.161,0.099,�k��,9.5,��
2018/01/27,14:10,0.308,0.191,0.315,0.305,0.281,0.162,0.098,�k��,9.5,��
2018/01/27,14:20,0.309,0.191,0.316,0.306,0.278,0.162,0.098,���k��,8.4,��
2018/01/27,14:30,0.310,0.191,0.317,0.306,0.278,0.160,0.098,���k��,6.6,��
2018/01/27,14:40,0.308,0.191,0.316,0.307,0.279,0.161,0.098,���k��,7.3,��
2018/01/27,14:50,0.309,0.191,0.316,0.307,0.280,0.161,0.100,���k��,8.8,��
2018/01/27,15:00,0.310,0.191,0.316,0.307,0.281,0.162,0.099,��,4.6,��
2018/01/27,15:10,0.309,0.191,0.316,0.306,0.281,0.161,0.098,�k��,1.5,��
2018/01/27,15:20,0.310,0.191,0.317,0.307,0.281,0.161,0.099,��,5.2,��
2018/01/27,15:30,0.309,0.191,0.316,0.307,0.281,0.162,0.099,���k��,6.1,��
2018/01/27,15:40,0.310,0.192,0.315,0.307,0.279,0.162,0.099,��,7.5,��
2018/01/27,15:50,0.309,0.191,0.317,0.307,0.281,0.161,0.098,���k��,6.7,��
2018/01/27,16:00,0.310,0.191,0.317,0.306,0.279,0.161,0.098,��,7.3,��
2018/01/27,16:10,0.309,0.192,0.318,0.307,0.279,0.161,0.099,���k��,7.5,��
2018/01/27,16:20,0.309,0.192,0.316,0.307,0.279,0.161,0.099,��,5.8,��
2018/01/27,16:30,0.308,0.192,0.316,0.307,0.279,0.161,0.099,��,5.3,��
2018/01/27,16:40,0.309,0.192,0.317,0.306,0.279,0.162,0.099,���k��,6.0,��
2018/01/27,16:50,0.309,0.192,0.316,0.307,0.279,0.162,0.098,�k�k��,2.2,��
2018/01/27,17:00,0.310,0.191,0.317,0.307,0.279,0.161,0.099,�k��,5.8,��
2018/01/27,17:10,0.310,0.191,0.316,0.306,0.279,0.162,0.098,�k��,3.1,��
2018/01/27,17:20,0.310,0.192,0.316,0.307,0.280,0.162,0.099,�k��,3.1,��
2018/01/27,17:30,0.310,0.191,0.317,0.307,0.279,0.161,0.098,�k��,2.8,��
2018/01/27,17:40,0.310,0.192,0.316,0.306,0.280,0.162,0.098,���k��,2.4,��
2018/01/27,17:50,0.311,0.192,0.316,0.308,0.279,0.162,0.099,�k��,4.8,��
2018/01/27,18:00,0.311,0.192,0.316,0.307,0.279,0.162,0.099,�k��,4.7,��
2018/01/27,18:10,0.310,0.191,0.316,0.307,0.278,0.162,0.098,�k�k��,5.5,��
2018/01/27,18:20,0.308,0.191,0.316,0.308,0.279,0.161,0.099,�k��,5.1,��
2018/01/27,18:30,0.309,0.192,0.316,0.307,0.279,0.162,0.099,�k��,5.8,��
2018/01/27,18:40,0.310,0.191,0.315,0.307,0.277,0.163,0.099,�k��,7.4,��
2018/01/27,18:50,0.309,0.192,0.316,0.308,0.279,0.162,0.099,�k��,6.2,��
2018/01/27,19:00,0.309,0.191,0.317,0.308,0.279,0.162,0.098,�k��,6.5,��
2018/01/27,19:10,0.309,0.190,0.316,0.307,0.279,0.161,0.098,�k��,6.1,��
2018/01/27,19:20,0.310,0.191,0.317,0.305,0.279,0.161,0.099,�k��,7.0,��
2018/01/27,19:30,0.310,0.191,0.316,0.307,0.280,0.162,0.099,���k��,6.9,��
2018/01/27,19:40,0.310,0.192,0.317,0.306,0.278,0.161,0.099,�k��,7.9,��
2018/01/27,19:50,0.309,0.192,0.316,0.307,0.279,0.162,0.098,�k��,8.2,��
2018/01/27,20:00,0.310,0.191,0.316,0.307,0.280,0.163,0.098,�k��,6.1,��
2018/01/27,20:10,0.310,0.191,0.317,0.306,0.278,0.162,0.098,�k��,9.5,��
2018/01/27,20:20,0.310,0.192,0.318,0.308,0.279,0.162,0.098,�k��,8.7,��
2018/01/27,20:30,0.309,0.191,0.317,0.306,0.278,0.162,0.098,�k��,6.7,��
2018/01/27,20:40,0.310,0.191,0.316,0.306,0.280,0.162,0.098,�k��,6.4,��
2018/01/27,20:50,0.310,0.192,0.317,0.307,0.280,0.162,0.099,�k��,4.3,��
2018/01/27,21:00,0.309,0.193,0.317,0.308,0.279,0.162,0.098,�k��,3.5,��
2018/01/27,21:10,0.310,0.192,0.318,0.306,0.280,0.162,0.098,���k��,1.5,��
2018/01/27,21:20,0.310,0.192,0.317,0.308,0.280,0.162,0.099,���k��,2.0,��
2018/01/27,21:30,0.310,0.191,0.316,0.308,0.279,0.162,0.098,�k,2.9,��
2018/01/27,21:40,0.311,0.191,0.318,0.306,0.281,0.162,0.099,�k�k��,4.0,��
2018/01/27,21:50,0.311,0.192,0.316,0.306,0.280,0.162,0.099,�k,3.3,��
2018/01/27,22:00,0.311,0.192,0.317,0.306,0.279,0.162,0.099,�k,3.0,��
2018/01/27,22:10,0.312,0.191,0.316,0.307,0.278,0.161,0.099,���k��,1.4,��
2018/01/27,22:20,0.310,0.193,0.317,0.308,0.279,0.161,0.099,�k�k��,3.6,��
2018/01/27,22:30,0.310,0.192,0.317,0.307,0.279,0.163,0.098,�k��,4.9,��
2018/01/27,22:40,0.309,0.192,0.318,0.307,0.278,0.162,0.099,�k��,4.5,��
2018/01/27,22:50,0.310,0.192,0.317,0.306,0.279,0.162,0.099,�k��,4.7,��
2018/01/27,23:00,0.310,0.191,0.317,0.306,0.278,0.162,0.099,�k��,3.6,��
2018/01/27,23:10,0.310,0.192,0.316,0.306,0.277,0.162,0.098,�k��,3.9,��
2018/01/27,23:20,0.310,0.190,0.317,0.306,0.277,0.162,0.098,���k��,3.5,��
2018/01/27,23:30,0.310,0.191,0.316,0.306,0.280,0.161,0.098,�k��,4.6,��
2018/01/27,23:40,0.310,0.191,0.316,0.307,0.277,0.162,0.098,�k�k��,5.1,��
2018/01/27,23:50,0.311,0.192,0.318,0.307,0.280,0.162,0.098,�k,3.1,��
